Location: El Azufral
(10.3513°N, 67.1528°W)
Time: 09:43:52
(UTC+00:00)

Cosmos 1500 Rocket - Pass Details

Date: 13 June 2024
Orbit: 600 x 626 km, 82.5° (Epoch: 19 July)

Event Time Altitude Azimuth Distance (km) Brightness Sun altitude
Rises 23:35:25 0° 4° (N) 2,855 7.3 -10.8°
Reaches altitude 10° 23:37:40 10° 10° (N) 1,956 6.3 -11.3°
Maximum altitude 23:41:52 49° 85° (E) 787 3.7 -12.2°
Enters shadow 23:46:00 11° 161° (SSE) 1,940 5.7 -13.1°
